Simultaneous Nadir Overpasses (SNOs) Predictions

Prediction of SNOs between GOES-16 and AQUA Satellite Orbit:

Table of predicted SNOs for the next 14.0 days since TLE Epoch: 12/8/2017
Index Date Time (GOES-16) GOES-16 Lat,Lon AQUA Lat,Lon Distance(km) Time Diff (sec)
1 12/10/2017 18:35:20 0.01, -76.11 0.33, -74.66 165.18 80
2 12/11/2017 06:53:53 -0.01, -75.40 0.94, -79.78 498.48 80
3 12/12/2017 18:22:59 0.01, -73.46 0.39, -71.58 213.27 80
4 12/13/2017 06:41:33 -0.01, -72.75 0.83, -76.71 450.14 80
5 12/14/2017 18:10:39 0.01, -70.81 0.52, -68.51 262.22 80
6 12/15/2017 06:29:12 0.00, -70.11 0.76, -73.63 400.96 80
7 12/16/2017 17:58:18 -0.00, -68.17 0.58, -65.43 311.74 80
8 12/17/2017 06:16:51 0.01, -67.47 0.69, -70.55 351.34 80
9 12/18/2017 17:45:57 -0.01, -65.53 0.66, -62.35 361.57 80
10 12/19/2017 06:04:31 0.01, -64.83 0.56, -67.48 301.36 80
11 12/20/2017 17:33:37 -0.00, -62.90 0.79, -59.28 411.86 80
12 12/21/2017 05:52:10 0.00, -62.20 0.49, -64.40 250.89 80
13 12/22/2017 17:21:16 0.00, -60.27 0.87, -56.21 462.75 80




NCC Satellite Simultaneous Nadir Overpasses (SNOs) Prediction Service
